Terug naar catalogus

STARLINK-3567

ActiefCommunicatieVLEO
NORAD 51871·PAYLOAD·🇺🇸 United States

Gelanceerd Mar 3, 2022 vanaf Cape Canaveral Space Force Station

Loading…

Volgende Passages (komende 24 uur)

TLE

VersSource: CelesTrak SupGP

Epoch: Sep 15, 2026, 01:36 UTC

1 51871C 22022V   26258.06715278 -.00023632  00000+0 -69828-3 0  2580
2 51871  53.1572 229.4598 0001286  93.2136 182.1513 15.34398861    17

Volg STARLINK-3567 in realtime met AllMySat

Download on the App Store